Location: Cahas Mountain Overlook
(37.0833°N, 80.1000°W)
Time: 14:21:58
(UTC-05:00)

Tiros 1 - All Passes

Search period start: 08 February 2026 00:00
Search period end: 18 February 2026 00:00
Orbit: 619 x 649 km, 48.4° (Epoch: 8 February)

Date Brightness Start Highest point End Pass type
(mag) Time Alt. Az. Time Alt. Az. Time Alt. Az.
8 Feb - 11:22:44 10° SSW 11:27:00 40° SE 11:31:15 10° ENE daylight
8 Feb - 13:04:34 10° W 13:08:53 41° NNW 13:13:12 10° NE daylight
8 Feb - 14:48:17 10° NW 14:51:40 20° N 14:55:02 10° NE daylight
8 Feb - 16:30:59 10° NW 16:34:43 24° NNE 16:38:26 10° ENE daylight
8 Feb - 18:12:36 10° NW 18:17:10 72° NNE 18:21:45 10° ESE visible
8 Feb - 19:55:23 10° W 19:58:41 20° SW 20:01:59 10° S visible
9 Feb - 10:04:48 10° SSE 10:07:13 14° SE 10:09:37 10° E daylight
9 Feb - 11:43:59 10° SW 11:48:33 87° SE 11:53:07 10° NE daylight
9 Feb - 13:26:59 10° WNW 13:30:52 27° NNW 13:34:45 10° NE daylight
9 Feb - 15:10:33 10° NW 15:13:52 19° N 15:17:11 10° NE daylight
9 Feb - 16:52:35 10° NW 16:56:45 34° NNE 17:00:57 10° E daylight
9 Feb - 18:34:21 10° WNW 18:38:48 55° SW 18:43:16 10° SE visible
10 Feb - 10:24:29 10° SSW 10:28:32 32° SE 10:32:35 10° ENE daylight
10 Feb - 12:05:53 10° WSW 12:10:18 49° NNW 12:14:43 10° NE daylight
10 Feb - 13:49:31 10° WNW 13:52:59 21° N 13:56:27 10° NE daylight
10 Feb - 15:32:28 10° NW 15:36:03 22° NNE 15:39:39 10° ENE daylight
10 Feb - 17:14:07 10° NW 17:18:37 59° NNE 17:23:09 10° ESE daylight
10 Feb - 18:56:32 10° W 19:00:15 25° SW 19:03:59 10° S visible
11 Feb - 09:07:45 10° SE 09:08:48 11° SE 09:09:53 10° ESE daylight
11 Feb - 10:45:30 10° SW 10:50:02 71° SE 10:54:35 10° ENE daylight
11 Feb - 12:28:12 10° W 12:32:13 30° NNW 12:36:15 10° NE daylight
11 Feb - 14:11:53 10° NW 14:15:11 19° N 14:18:29 10° NE daylight
11 Feb - 15:54:06 10° NW 15:58:08 30° NNE 16:02:11 10° E daylight
11 Feb - 17:35:47 10° WNW 17:40:19 70° SW 17:44:51 10° SE daylight
11 Feb - 19:20:37 10° WSW 19:21:32 11° SW 19:22:27 10° SW visible
12 Feb - 09:26:21 10° S 09:30:06 25° SE 09:33:51 10° ENE daylight
12 Feb - 11:07:13 10° WSW 11:11:44 59° NNW 11:16:14 10° NE daylight
12 Feb - 12:50:43 10° WNW 12:54:19 22° NNW 12:57:54 10° NE daylight
12 Feb - 14:33:54 10° NW 14:37:23 21° N 14:40:52 10° ENE daylight
12 Feb - 16:15:38 10° NW 16:20:03 49° NNE 16:24:29 10° ESE daylight
12 Feb - 17:57:46 10° WNW 18:01:48 31° SW 18:05:51 10° SSE daylight
13 Feb - 09:47:04 10° SW 09:51:33 56° SE 09:56:01 10° ENE daylight
13 Feb - 11:29:25 10° W 11:33:36 34° NNW 11:37:46 10° NE daylight
13 Feb - 13:13:11 10° NW 13:16:30 19° N 13:19:48 10° NE daylight
13 Feb - 14:55:36 10° NW 14:59:30 27° NNE 15:03:23 10° ENE daylight
13 Feb - 16:37:14 10° NW 16:41:47 86° SW 16:46:22 10° SE daylight
13 Feb - 18:20:47 10° W 18:23:08 14° SW 18:25:29 10° SSW visible
14 Feb - 08:28:19 10° S 08:31:40 20° SE 08:34:59 10° E daylight
14 Feb - 10:08:36 10° WSW 10:13:11 72° NNW 10:17:43 10° NE daylight
14 Feb - 11:51:55 10° WNW 11:55:38 24° NNW 11:59:21 10° NE daylight
14 Feb - 13:35:18 10° NW 13:38:42 20° N 13:42:05 10° NE daylight
14 Feb - 15:17:08 10° NW 15:21:28 42° NNE 15:25:47 10° E daylight
14 Feb - 16:59:05 10° WNW 17:03:21 40° SW 17:07:36 10° SSE daylight
15 Feb - 08:48:42 10° SSW 08:53:03 44° SE 08:57:23 10° ENE daylight
15 Feb - 10:30:40 10° W 10:34:59 39° NNW 10:39:17 10° NE daylight
15 Feb - 12:14:25 10° NW 12:17:47 20° N 12:21:09 10° NE daylight
15 Feb - 13:57:04 10° NW 14:00:50 25° NNE 14:04:35 10° ENE daylight
15 Feb - 15:38:42 10° NW 15:43:15 77° NE 15:47:48 10° ESE daylight
15 Feb - 17:21:38 10° W 17:24:42 18° SW 17:27:47 10° S daylight
16 Feb - 07:30:30 10° SSE 07:33:13 16° SE 07:35:57 10° E daylight
16 Feb - 09:10:01 10° SW 09:14:37 87° NW 09:19:12 10° NE daylight
16 Feb - 10:53:06 10° WNW 10:56:58 26° NNW 11:00:49 10° NE daylight
16 Feb - 12:36:39 10° NW 12:39:59 20° N 12:43:19 10° NE daylight
16 Feb - 14:18:38 10° NW 14:22:51 36° NNE 14:27:03 10° E daylight
16 Feb - 16:00:27 10° WNW 16:04:51 51° SW 16:09:15 10° SE daylight
17 Feb - 07:50:23 10° SSW 07:54:33 35° SE 07:58:44 10° ENE daylight
17 Feb - 09:31:56 10° WSW 09:36:22 46° NNW 09:40:47 10° NE daylight
17 Feb - 11:15:37 10° WNW 11:19:05 21° N 11:22:32 10° NE daylight
17 Feb - 12:58:31 10° NW 13:02:09 23° NNE 13:05:46 10° ENE daylight
17 Feb - 14:40:10 10° NW 14:44:41 63° NNE 14:49:12 10° ESE daylight
17 Feb - 16:22:41 10° W 16:26:16 23° SW 16:29:51 10° S daylight
